Location: Unspecified
(52.0000°N, 4.4000°E)
Time: 17:12:08
(UTC+00:00)

Cosmos 1900 - Pass Details

Date: 14 May 2025
Orbit: 678 x 738 km, 66.1° (Epoch: 17 June)

Event Time Altitude Azimuth Distance (km) Brightness Sun altitude
Rises 21:46:39 0° 319° (NW) 3,149 9.3 -15.0°
Reaches altitude 10° 21:49:00 10° 319° (NW) 2,232 8.2 -15.2°
Maximum altitude 21:54:07 86° 231° (SW) 743 4.4 -15.6°
Enters shadow 21:57:06 26° 145° (SE) 1,436 5.3 -15.8°
